QPF
0.00 0.00 0.00 0.00 0.00 0.00 0.00 0.00 0.00 0.00 0.00 0.00 0.00 0.01 0.01 0.02 0.03 0.03 0.04 0.05 0.05 0.07 0.06 0.04 0.03 0.03 0.04 0.07 0.11 0.16 0.16 0.24 0.21 0.20 0.22 0.28 0.26 0.16 0.13 0.16 0.13 0.11 0.10 0.11
0.00 0.00 0.00 0.00 0.00 0.00 0.00 0.00 0.00 0.00 0.00 0.00 0.00 0.01 0.02 0.03 0.03 0.03 0.04 0.03 0.03 0.04 0.07 0.07 0.05 0.04 0.04 0.05 0.07 0.09 0.11 0.14 0.15 0.15 0.14 0.14 0.15 0.12 0.09 0.09 0.08 0.07 0.07 0.06
0.00 0.00 0.00 0.00 0.00 0.00 0.00 0.00 0.00 0.00 0.00 0.00 0.01 0.02 0.04 0.04 0.03 0.03 0.03 0.04 0.04 0.10 0.09 0.06 0.06 0.05 0.04 0.05 0.06 0.06 0.07 0.07 0.08 0.09 0.09 0.09 0.08 0.08 0.08 0.07 0.08 0.07 0.05 0.04
0.00 0.00 0.00 0.00 0.00 0.00 0.00 0.00 0.00 0.00 0.00 0.00 0.01 0.02 0.05 0.04 0.03 0.03 0.04 0.05 0.06 0.08 0.07 0.06 0.06 0.04 0.04 0.03 0.04 0.05 0.05 0.05 0.05 0.06 0.07 0.07 0.07 0.09 0.09 0.07 0.06 0.05 0.04 0.04
0.00 0.00 0.00 0.00 0.00 0.00 0.00 0.00 0.00 0.00 0.00 0.00 0.00 0.01 0.03 0.04 0.04 0.03 0.05 0.07 0.07 0.08 0.07 0.07 0.06 0.05 0.03 0.02 0.03 0.05 0.06 0.05 0.04 0.04 0.05 0.06 0.06 0.05 0.05 0.05 0.04 0.04 0.04 0.04
0.00 0.00 0.00 0.00 0.00 0.00 0.00 0.00 0.00 0.00 0.00 0.00 0.00 0.00 0.02 0.03 0.03 0.04 0.04 0.05 0.06 0.09 0.10 0.08 0.07 0.08 0.06 0.04 0.03 0.03 0.05 0.05 0.04 0.04 0.04 0.04 0.03 0.02 0.02 0.02 0.02 0.01 0.01 0.01
0.00 0.00 0.00 0.00 0.00 0.00 0.00 0.00 0.00 0.00 0.00 0.00 0.00 0.00 0.01 0.01 0.02 0.03 0.05 0.06 0.06 0.06 0.06 0.05 0.04 0.03 0.02 0.02 0.02 0.02 0.02 0.03 0.03 0.03 0.02 0.02 0.01 0.01 0.00 0.00 0.00 0.01 0.01 0.00
0.00 0.00 0.00 0.00 0.00 0.00 0.00 0.00 0.00 0.00 0.00 0.00 0.00 0.00 0.01 0.01 0.02 0.04 0.04 0.05 0.05 0.06 0.05 0.04 0.03 0.02 0.01 0.01 0.01 0.01 0.01 0.01 0.01 0.01 0.01 0.01 0.00 0.00 0.00 0.00 0.00 0.00 0.00 0.00
0.00 0.00 0.00 0.00 0.00 0.00 0.00 0.00 0.00 0.00 0.00 0.00 0.00 0.00 0.01 0.01 0.03 0.05 0.06 0.06 0.06 0.05 0.04 0.03 0.02 0.01 0.01 0.00 0.00 0.00 0.00 0.00 0.00 0.00 0.00 0.01 0.01 0.01 0.00 0.00 0.00 0.00 0.00 0.00
0.00 0.00 0.00 0.00 0.00 0.00 0.00 0.01 0.01 0.00 0.00 0.00 0.00 0.00 0.01 0.02 0.03 0.04 0.06 0.07 0.06 0.05 0.03 0.03 0.02 0.01 0.01 0.00 0.00 0.00 0.00 0.00 0.00 0.00 0.00 0.00 0.00 0.00 0.01 0.01 0.01 0.00 0.00 0.00
0.00 0.00 0.00 0.00 0.00 0.00 0.00 0.01 0.01 0.00 0.00 0.00 0.00 0.00 0.01 0.01 0.02 0.04 0.06 0.10 0.11 0.08 0.05 0.04 0.04 0.02 0.01 0.01 0.00 0.00 0.00 0.00 0.00 0.00 0.00 0.00 0.00 0.00 0.01 0.01 0.01 0.00 0.00 0.00
0.00 0.00 0.00 0.00 0.01 0.01 0.01 0.00 0.00 0.00 0.01 0.01 0.01 0.01 0.01 0.01 0.03 0.05 0.09 0.13 0.19 0.13 0.08 0.04 0.03 0.02 0.01 0.01 0.00 0.00 0.00 0.00 0.00 0.00 0.00 0.00 0.00 0.00 0.00 0.01 0.01 0.01 0.00 0.00
0.01 0.01 0.01 0.01 0.01 0.01 0.01 0.01 0.01 0.00 0.01 0.01 0.01 0.01 0.01 0.01 0.02 0.03 0.06 0.08 0.16 0.17 0.13 0.07 0.03 0.02 0.02 0.02 0.01 0.00 0.00 0.00 0.01 0.01 0.01 0.01 0.01 0.00 0.00 0.00 0.00 0.01 0.01 0.01
0.00 0.01 0.01 0.01 0.01 0.00 0.00 0.00 0.01 0.01 0.02 0.01 0.01 0.01 0.01 0.01 0.01 0.02 0.04 0.05 0.08 0.13 0.15 0.11 0.04 0.02 0.02 0.02 0.01 0.01 0.01 0.00 0.00 0.00 0.01 0.01 0.00 0.00 0.00 0.00 0.00 0.01 0.01 0.01
0.00 0.00 0.01 0.00 0.00 0.00 0.01 0.01 0.02 0.02 0.01 0.01 0.01 0.01 0.02 0.02 0.01 0.02 0.04 0.04 0.05 0.06 0.07 0.06 0.04 0.03 0.02 0.01 0.01 0.01 0.00 0.00 0.00 0.00 0.00 0.00 0.00 0.00 0.01 0.00 0.00 0.01 0.01 0.01
0.00 0.00 0.00 0.00 0.00 0.01 0.01 0.02 0.02 0.02 0.02 0.01 0.01 0.01 0.01 0.01 0.02 0.03 0.03 0.04 0.06 0.07 0.06 0.04 0.03 0.03 0.01 0.01 0.01 0.00 0.00 0.00 0.00 0.00 0.00 0.00 0.01 0.01 0.01 0.00 0.00 0.01 0.01 0.01
0.00 0.00 0.00 0.00 0.00 0.01 0.01 0.03 0.02 0.02 0.02 0.02 0.02 0.02 0.01 0.02 0.02 0.03 0.03 0.04 0.05 0.06 0.06 0.05 0.04 0.02 0.01 0.01 0.00 0.00 0.00 0.00 0.00 0.00 0.00 0.00 0.01 0.01 0.01 0.01 0.00 0.00 0.00 0.01
0.01 0.01 0.00 0.00 0.00 0.01 0.03 0.05 0.04 0.03 0.02 0.02 0.02 0.02 0.02 0.02 0.02 0.02 0.03 0.03 0.05 0.05 0.05 0.04 0.03 0.02 0.02 0.01 0.01 0.01 0.01 0.01 0.01 0.00 0.00 0.00 0.01 0.01 0.01 0.01 0.00 0.00 0.00 0.01
0.01 0.00 0.00 0.00 0.01 0.02 0.03 0.03 0.03 0.03 0.03 0.03 0.03 0.02 0.01 0.02 0.02 0.03 0.04 0.05 0.06 0.05 0.04 0.04 0.03 0.01 0.01 0.01 0.01 0.01 0.01 0.01 0.01 0.01 0.01 0.01 0.01 0.01 0.01 0.01 0.00 0.00 0.00 0.01
0.01 0.01 0.01 0.01 0.02 0.02 0.02 0.01 0.01 0.02 0.02 0.03 0.03 0.02 0.01 0.01 0.02 0.03 0.04 0.05 0.04 0.02 0.03 0.04 0.03 0.02 0.02 0.02 0.02 0.01 0.01 0.01 0.01 0.01 0.02 0.01 0.01 0.01 0.01 0.01 0.00 0.00 0.01 0.01
0.01 0.01 0.02 0.02 0.02 0.02 0.01 0.01 0.01 0.02 0.02 0.02 0.02 0.02 0.02 0.02 0.01 0.01 0.02 0.03 0.04 0.04 0.05 0.05 0.04 0.01 0.01 0.02 0.01 0.01 0.01 0.01 0.01 0.01 0.02 0.02 0.01 0.01 0.01 0.00 0.00 0.00 0.01 0.01
0.00 0.01 0.01 0.01 0.01 0.01 0.00 0.00 0.00 0.01 0.01 0.02 0.02 0.01 0.01 0.01 0.02 0.01 0.02 0.04 0.06 0.06 0.04 0.03 0.03 0.02 0.02 0.02 0.01 0.01 0.01 0.01 0.01 0.01 0.02 0.02 0.02 0.01 0.00 0.00 0.00 0.01 0.01 0.01
0.00 0.00 0.00 0.01 0.01 0.01 0.00 0.00 0.01 0.01 0.02 0.02 0.02 0.02 0.01 0.02 0.05 0.05 0.02 0.03 0.05 0.04 0.03 0.02 0.02 0.02 0.02 0.02 0.01 0.02 0.01 0.01 0.01 0.02 0.02 0.02 0.01 0.01 0.01 0.01 0.01 0.01 0.01 0.01
0.00 0.00 0.01 0.01 0.01 0.01 0.01 0.01 0.01 0.01 0.01 0.01 0.02 0.02 0.01 0.02 0.05 0.04 0.01 0.01 0.01 0.01 0.02 0.02 0.02 0.01 0.01 0.01 0.01 0.01 0.02 0.01 0.02 0.02 0.02 0.02 0.01 0.01 0.00 0.01 0.01 0.01 0.01 0.01
0.01 0.01 0.01 0.01 0.01 0.01 0.01 0.01 0.01 0.00 0.00 0.00 0.01 0.01 0.01 0.03 0.03 0.02 0.01 0.01 0.00 0.01 0.01 0.01 0.02 0.02 0.02 0.02 0.01 0.01 0.02 0.02 0.02 0.02 0.01 0.01 0.01 0.01 0.01 0.01 0.01 0.00 0.01 0.01
0.01 0.00 0.01 0.01 0.02 0.01 0.01 0.00 0.00 0.00 0.01 0.01 0.01 0.01 0.01 0.02 0.01 0.01 0.01 0.01 0.01 0.01 0.02 0.01 0.02 0.02 0.02 0.02 0.01 0.01 0.01 0.01 0.01 0.01 0.01 0.01 0.01 0.01 0.01 0.01 0.00 0.00 0.01 0.01
MSLP
1013.18 1013.87 1014.35 1014.62 1014.71 1014.68 1014.61 1014.59 1014.66 1014.86 1015.17 1015.57 1016.00 1016.41 1016.75 1016.98 1017.09 1017.10 1017.05 1016.97 1016.89 1016.83 1016.82 1016.83 1016.85 1016.85 1016.79 1016.67 1016.48 1016.24 1015.96 1015.69 1015.46 1015.30 1015.23 1015.26 1015.36 1015.54 1015.74 1015.95 1016.15 1016.33 1016.50 1016.66
1013.40 1013.93 1014.27 1014.43 1014.47 1014.47 1014.50 1014.62 1014.87 1015.25 1015.72 1016.23 1016.71 1017.10 1017.37 1017.51 1017.52 1017.45 1017.35 1017.25 1017.20 1017.21 1017.26 1017.33 1017.38 1017.37 1017.27 1017.08 1016.80 1016.46 1016.11 1015.79 1015.54 1015.39 1015.35 1015.42 1015.56 1015.76 1015.97 1016.17 1016.35 1016.51 1016.64 1016.78
1013.43 1013.79 1013.98 1014.04 1014.06 1014.11 1014.26 1014.56 1015.01 1015.58 1016.20 1016.80 1017.32 1017.68 1017.87 1017.90 1017.81 1017.65 1017.50 1017.41 1017.40 1017.48 1017.61 1017.76 1017.87 1017.88 1017.78 1017.55 1017.21 1016.82 1016.42 1016.08 1015.83 1015.70 1015.71 1015.82 1016.01 1016.24 1016.47 1016.67 1016.83 1016.95 1017.04 1017.13
1013.36 1013.54 1013.59 1013.58 1013.59 1013.72 1014.01 1014.49 1015.13 1015.88 1016.64 1017.32 1017.85 1018.16 1018.26 1018.18 1017.97 1017.73 1017.54 1017.45 1017.50 1017.66 1017.90 1018.15 1018.35 1018.42 1018.35 1018.13 1017.79 1017.38 1016.97 1016.62 1016.38 1016.28 1016.32 1016.48 1016.71 1016.96 1017.20 1017.40 1017.53 1017.61 1017.65 1017.68
1013.29 1013.31 1013.24 1013.18 1013.21 1013.42 1013.85 1014.50 1015.33 1016.22 1017.09 1017.82 1018.33 1018.57 1018.57 1018.36 1018.05 1017.73 1017.50 1017.43 1017.53 1017.79 1018.15 1018.53 1018.84 1019.01 1019.02 1018.85 1018.53 1018.14 1017.74 1017.40 1017.18 1017.11 1017.17 1017.35 1017.59 1017.86 1018.09 1018.27 1018.36 1018.40 1018.38 1018.33
1013.30 1013.19 1013.04 1012.96 1013.03 1013.33 1013.89 1014.68 1015.64 1016.64 1017.56 1018.30 1018.76 1018.92 1018.81 1018.49 1018.07 1017.69 1017.44 1017.38 1017.55 1017.91 1018.39 1018.90 1019.34 1019.64 1019.74 1019.65 1019.40 1019.05 1018.68 1018.36 1018.15 1018.08 1018.15 1018.33 1018.57 1018.81 1019.02 1019.16 1019.22 1019.19 1019.11 1018.99
1013.45 1013.26 1013.08 1013.00 1013.12 1013.50 1014.15 1015.04 1016.07 1017.12 1018.05 1018.75 1019.14 1019.21 1018.99 1018.57 1018.08 1017.64 1017.38 1017.35 1017.58 1018.03 1018.62 1019.26 1019.83 1020.24 1020.46 1020.46 1020.28 1019.99 1019.66 1019.37 1019.17 1019.10 1019.15 1019.30 1019.50 1019.71 1019.87 1019.97 1019.97 1019.89 1019.75 1019.58
1013.73 1013.52 1013.35 1013.30 1013.48 1013.92 1014.63 1015.55 1016.60 1017.62 1018.50 1019.13 1019.43 1019.40 1019.09 1018.59 1018.05 1017.59 1017.33 1017.34 1017.62 1018.15 1018.83 1019.56 1020.23 1020.75 1021.07 1021.16 1021.07 1020.84 1020.56 1020.29 1020.10 1020.01 1020.04 1020.14 1020.30 1020.45 1020.55 1020.59 1020.55 1020.42 1020.23 1020.01
1014.13 1013.95 1013.81 1013.82 1014.04 1014.51 1015.23 1016.13 1017.12 1018.07 1018.85 1019.37 1019.57 1019.46 1019.08 1018.55 1017.99 1017.54 1017.31 1017.35 1017.67 1018.25 1018.99 1019.78 1020.51 1021.10 1021.49 1021.66 1021.64 1021.48 1021.25 1021.01 1020.83 1020.73 1020.72 1020.78 1020.88 1020.97 1021.02 1021.00 1020.91 1020.74 1020.52 1020.26
1014.58 1014.46 1014.39 1014.45 1014.70 1015.18 1015.85 1016.68 1017.56 1018.37 1019.02 1019.42 1019.52 1019.34 1018.93 1018.40 1017.87 1017.47 1017.28 1017.36 1017.72 1018.31 1019.06 1019.87 1020.62 1021.24 1021.67 1021.89 1021.93 1021.83 1021.66 1021.47 1021.31 1021.21 1021.18 1021.20 1021.25 1021.28 1021.28 1021.21 1021.07 1020.87 1020.62 1020.34
1015.00 1014.97 1014.98 1015.09 1015.36 1015.80 1016.39 1017.09 1017.81 1018.46 1018.95 1019.23 1019.24 1019.03 1018.63 1018.15 1017.69 1017.36 1017.24 1017.36 1017.74 1018.33 1019.05 1019.83 1020.55 1021.15 1021.59 1021.85 1021.94 1021.90 1021.78 1021.65 1021.53 1021.46 1021.42 1021.43 1021.44 1021.43 1021.38 1021.27 1021.11 1020.88 1020.61 1020.30
1015.37 1015.43 1015.52 1015.67 1015.93 1016.31 1016.78 1017.32 1017.86 1018.33 1018.66 1018.81 1018.77 1018.55 1018.20 1017.81 1017.46 1017.23 1017.19 1017.37 1017.75 1018.32 1018.99 1019.69 1020.35 1020.91 1021.33 1021.59 1021.72 1021.75 1021.70 1021.64 1021.58 1021.55 1021.54 1021.54 1021.54 1021.50 1021.42 1021.28 1021.09 1020.84 1020.55 1020.23
1015.68 1015.82 1015.97 1016.15 1016.38 1016.67 1017.01 1017.38 1017.73 1018.01 1018.19 1018.24 1018.16 1017.97 1017.71 1017.44 1017.22 1017.12 1017.18 1017.40 1017.79 1018.31 1018.91 1019.53 1020.10 1020.59 1020.97 1021.23 1021.40 1021.48 1021.51 1021.53 1021.55 1021.57 1021.60 1021.62 1021.62 1021.57 1021.47 1021.31 1021.10 1020.83 1020.52 1020.18
1015.95 1016.16 1016.35 1016.53 1016.72 1016.91 1017.11 1017.30 1017.47 1017.58 1017.63 1017.62 1017.53 1017.39 1017.23 1017.10 1017.04 1017.07 1017.23 1017.51 1017.90 1018.38 1018.89 1019.41 1019.89 1020.30 1020.64 1020.89 1021.08 1021.22 1021.33 1021.43 1021.52 1021.61 1021.69 1021.74 1021.75 1021.70 1021.59 1021.41 1021.17 1020.89 1020.57 1020.22
1016.22 1016.48 1016.69 1016.86 1016.99 1017.08 1017.14 1017.17 1017.17 1017.15 1017.10 1017.03 1016.96 1016.89 1016.86 1016.88 1016.96 1017.14 1017.39 1017.72 1018.12 1018.55 1018.99 1019.41 1019.80 1020.14 1020.42 1020.66 1020.87 1021.05 1021.23 1021.40 1021.56 1021.71 1021.83 1021.91 1021.93 1021.88 1021.76 1021.58 1021.34 1021.04 1020.71 1020.36
1016.55 1016.83 1017.04 1017.17 1017.23 1017.22 1017.15 1017.04 1016.92 1016.79 1016.67 1016.59 1016.55 1016.57 1016.66 1016.82 1017.05 1017.35 1017.69 1018.07 1018.47 1018.86 1019.23 1019.57 1019.88 1020.15 1020.38 1020.60 1020.82 1021.03 1021.25 1021.47 1021.67 1021.86 1022.01 1022.11 1022.14 1022.10 1021.99 1021.80 1021.56 1021.27 1020.95 1020.60
1016.95 1017.22 1017.40 1017.49 1017.47 1017.37 1017.19 1016.98 1016.75 1016.55 1016.40 1016.33 1016.35 1016.46 1016.66 1016.95 1017.31 1017.71 1018.14 1018.56 1018.95 1019.31 1019.63 1019.90 1020.14 1020.34 1020.54 1020.73 1020.94 1021.15 1021.39 1021.62 1021.85 1022.06 1022.22 1022.32 1022.36 1022.32 1022.21 1022.04 1021.82 1021.55 1021.25 1020.93
1017.40 1017.64 1017.77 1017.79 1017.70 1017.52 1017.26 1016.97 1016.69 1016.46 1016.31 1016.27 1016.35 1016.56 1016.87 1017.27 1017.73 1018.22 1018.70 1019.15 1019.55 1019.88 1020.16 1020.37 1020.55 1020.71 1020.86 1021.02 1021.20 1021.39 1021.61 1021.84 1022.05 1022.24 1022.39 1022.49 1022.53 1022.50 1022.41 1022.27 1022.08 1021.85 1021.59 1021.32
1017.86 1018.04 1018.11 1018.06 1017.89 1017.64 1017.33 1017.00 1016.70 1016.48 1016.37 1016.38 1016.54 1016.83 1017.24 1017.73 1018.27 1018.82 1019.34 1019.80 1020.20 1020.51 1020.75 1020.93 1021.06 1021.17 1021.28 1021.40 1021.54 1021.70 1021.88 1022.06 1022.24 1022.40 1022.53 1022.61 1022.65 1022.64 1022.58 1022.48 1022.34 1022.17 1021.98 1021.75
1018.25 1018.35 1018.34 1018.21 1017.98 1017.68 1017.34 1017.01 1016.73 1016.55 1016.50 1016.60 1016.84 1017.22 1017.71 1018.27 1018.87 1019.45 1019.99 1020.46 1020.85 1021.14 1021.35 1021.50 1021.60 1021.67 1021.74 1021.82 1021.91 1022.03 1022.15 1022.28 1022.41 1022.53 1022.63 1022.70 1022.74 1022.76 1022.74 1022.70 1022.63 1022.53 1022.40 1022.24
1018.50 1018.51 1018.41 1018.21 1017.93 1017.60 1017.26 1016.96 1016.74 1016.64 1016.68 1016.87 1017.21 1017.67 1018.23 1018.85 1019.47 1020.07 1020.62 1021.08 1021.45 1021.72 1021.91 1022.03 1022.11 1022.16 1022.20 1022.24 1022.29 1022.35 1022.42 1022.50 1022.58 1022.66 1022.73 1022.80 1022.86 1022.91 1022.95 1022.97 1022.97 1022.95 1022.89 1022.79
1018.56 1018.48 1018.29 1018.03 1017.71 1017.39 1017.08 1016.85 1016.72 1016.72 1016.88 1017.18 1017.61 1018.15 1018.77 1019.42 1020.06 1020.65 1021.18 1021.62 1021.97 1022.22 1022.39 1022.50 1022.56 1022.60 1022.62 1022.63 1022.65 1022.67 1022.70 1022.74 1022.78 1022.83 1022.89 1022.97 1023.05 1023.15 1023.25 1023.34 1023.41 1023.46 1023.46 1023.41
1018.41 1018.24 1017.98 1017.68 1017.36 1017.06 1016.82 1016.69 1016.67 1016.81 1017.08 1017.50 1018.03 1018.64 1019.30 1019.96 1020.60 1021.18 1021.67 1022.08 1022.39 1022.62 1022.78 1022.87 1022.93 1022.96 1022.98 1022.99 1022.99 1022.99 1023.00 1023.01 1023.04 1023.08 1023.15 1023.25 1023.37 1023.51 1023.66 1023.82 1023.95 1024.05 1024.09 1024.07
1018.07 1017.83 1017.53 1017.21 1016.92 1016.68 1016.54 1016.52 1016.65 1016.92 1017.32 1017.85 1018.47 1019.14 1019.82 1020.48 1021.10 1021.63 1022.09 1022.45 1022.72 1022.92 1023.06 1023.15 1023.21 1023.25 1023.28 1023.29 1023.30 1023.31 1023.32 1023.34 1023.37 1023.43 1023.52 1023.64 1023.80 1023.99 1024.19 1024.39 1024.56 1024.69 1024.75 1024.74
1017.60 1017.30 1016.99 1016.69 1016.46 1016.31 1016.29 1016.40 1016.67 1017.08 1017.61 1018.24 1018.93 1019.63 1020.33 1020.97 1021.54 1022.03 1022.42 1022.73 1022.96 1023.12 1023.25 1023.33 1023.40 1023.46 1023.50 1023.54 1023.58 1023.61 1023.65 1023.69 1023.75 1023.84 1023.96 1024.11 1024.31 1024.53 1024.76 1024.98 1025.17 1025.31 1025.37 1025.34
1017.05 1016.74 1016.44 1016.19 1016.04 1016.00 1016.11 1016.37 1016.77 1017.31 1017.95 1018.65 1019.39 1020.11 1020.79 1021.40 1021.91 1022.33 1022.67 1022.91 1023.10 1023.23 1023.33 1023.42 1023.50 1023.57 1023.65 1023.72 1023.79 1023.87 1023.94 1024.03 1024.13 1024.25 1024.40 1024.59 1024.81 1025.05 1025.29 1025.51 1025.70 1025.82 1025.86 1025.80
Thickness
5702 5691 5685 5691 5695 5698 5697 5694 5690 5696 5707 5702 5697 5695 5698 5701 5699 5696 5695 5694 5693 5692 5692 5691 5690 5690 5690 5689 5689 5689 5688 5687 5687 5687 5686 5685 5683 5683 5684 5683 5682 5683 5682 5683
5686 5685 5696 5700 5698 5697 5695 5691 5689 5693 5703 5698 5690 5689 5693 5695 5694 5694 5692 5690 5689 5686 5685 5683 5682 5682 5681 5681 5681 5681 5681 5681 5681 5681 5681 5679 5677 5677 5677 5676 5676 5676 5676 5677
5684 5691 5702 5699 5696 5693 5692 5691 5692 5689 5691 5692 5688 5680 5684 5691 5693 5691 5690 5688 5685 5682 5680 5676 5674 5673 5672 5672 5672 5672 5672 5673 5674 5674 5674 5673 5672 5670 5669 5668 5668 5667 5667 5667
5686 5695 5699 5697 5695 5695 5687 5701 5698 5693 5680 5670 5679 5663 5677 5684 5685 5686 5685 5683 5681 5678 5675 5671 5668 5665 5664 5663 5664 5664 5664 5665 5665 5666 5666 5665 5662 5660 5658 5658 5658 5658 5659 5659
5685 5695 5695 5693 5699 5699 5697 5703 5697 5690 5676 5666 5667 5661 5668 5679 5679 5682 5682 5680 5677 5675 5670 5666 5662 5659 5657 5656 5656 5656 5657 5657 5657 5658 5657 5656 5654 5652 5651 5650 5650 5650 5650 5650
5688 5700 5701 5701 5707 5706 5702 5692 5683 5672 5665 5654 5661 5659 5662 5673 5681 5683 5681 5678 5674 5669 5664 5659 5655 5653 5651 5649 5648 5649 5649 5649 5649 5649 5649 5648 5645 5644 5643 5642 5641 5641 5641 5641
5681 5692 5702 5707 5701 5700 5694 5675 5656 5654 5645 5649 5661 5657 5662 5679 5684 5685 5680 5674 5669 5663 5658 5653 5649 5646 5644 5642 5641 5640 5640 5638 5638 5638 5638 5637 5636 5635 5633 5632 5631 5631 5631 5632
5667 5669 5692 5700 5699 5691 5687 5679 5656 5646 5642 5645 5655 5653 5666 5678 5682 5682 5677 5670 5663 5656 5651 5647 5642 5639 5636 5634 5633 5632 5630 5629 5628 5628 5628 5627 5627 5626 5624 5623 5622 5621 5621 5622
5664 5669 5693 5700 5701 5696 5682 5671 5671 5652 5646 5641 5646 5656 5667 5672 5672 5672 5668 5662 5655 5650 5644 5639 5635 5631 5628 5626 5624 5622 5621 5620 5619 5619 5618 5617 5616 5616 5614 5613 5613 5612 5612 5613
5676 5670 5683 5694 5697 5690 5685 5671 5658 5649 5638 5637 5647 5651 5655 5663 5664 5663 5660 5655 5649 5642 5637 5632 5626 5622 5619 5617 5615 5613 5612 5610 5609 5608 5608 5607 5606 5605 5604 5603 5602 5602 5603 5603
5677 5666 5670 5679 5676 5674 5676 5669 5656 5644 5644 5635 5634 5646 5667 5666 5665 5660 5656 5651 5644 5637 5631 5626 5620 5615 5611 5609 5607 5604 5603 5602 5600 5598 5598 5597 5595 5595 5594 5593 5592 5592 5592 5593
5668 5657 5653 5665 5676 5680 5678 5670 5659 5650 5643 5639 5635 5643 5667 5666 5663 5657 5651 5644 5637 5631 5625 5619 5613 5608 5605 5601 5599 5596 5594 5593 5591 5590 5589 5587 5586 5585 5584 5583 5582 5582 5582 5582
5665 5652 5643 5648 5657 5666 5667 5666 5660 5651 5640 5633 5633 5644 5658 5658 5654 5651 5644 5638 5630 5623 5617 5611 5605 5600 5597 5594 5591 5589 5586 5584 5582 5581 5579 5577 5576 5574 5573 5572 5572 5572 5572 5572
5666 5648 5642 5640 5645 5654 5658 5661 5658 5651 5639 5637 5642 5648 5650 5649 5646 5642 5637 5631 5624 5617 5611 5604 5598 5592 5589 5586 5582 5580 5577 5575 5573 5572 5570 5567 5565 5564 5563 5562 5562 5562 5562 5563
5659 5645 5648 5649 5655 5656 5656 5656 5657 5652 5649 5643 5648 5647 5647 5647 5643 5637 5632 5625 5618 5611 5604 5598 5591 5585 5581 5577 5574 5571 5569 5567 5565 5563 5560 5557 5555 5555 5554 5553 5552 5552 5553 5553
5648 5642 5644 5644 5651 5652 5649 5651 5653 5651 5650 5647 5647 5644 5646 5643 5638 5631 5625 5619 5613 5606 5599 5592 5585 5580 5574 5570 5567 5564 5561 5559 5556 5554 5551 5549 5547 5546 5545 5544 5543 5543 5543 5543
5640 5638 5632 5630 5640 5645 5634 5641 5645 5645 5646 5645 5640 5640 5639 5634 5629 5625 5619 5614 5608 5602 5594 5587 5581 5574 5568 5564 5561 5557 5554 5551 5548 5546 5543 5541 5539 5537 5536 5535 5535 5534 5534 5535
5639 5631 5622 5623 5631 5622 5632 5646 5646 5641 5640 5642 5639 5636 5633 5629 5624 5619 5615 5609 5603 5597 5590 5582 5575 5568 5562 5558 5554 5550 5547 5544 5541 5538 5536 5534 5532 5530 5529 5528 5527 5526 5526 5526
5640 5633 5621 5615 5617 5623 5635 5642 5640 5637 5634 5636 5633 5629 5625 5622 5618 5611 5607 5604 5599 5592 5585 5577 5570 5563 5557 5552 5548 5545 5541 5538 5535 5533 5530 5528 5526 5524 5522 5521 5520 5519 5519 5519
5636 5632 5622 5615 5617 5616 5629 5641 5644 5637 5627 5632 5630 5625 5621 5618 5609 5604 5602 5597 5591 5584 5577 5570 5563 5556 5551 5546 5543 5539 5535 5533 5530 5527 5525 5522 5520 5518 5517 5515 5514 5514 5514 5513
5627 5623 5618 5614 5614 5620 5634 5639 5641 5625 5624 5630 5627 5623 5618 5613 5607 5602 5597 5591 5585 5578 5571 5564 5558 5552 5546 5542 5538 5534 5531 5528 5525 5523 5520 5517 5516 5514 5513 5511 5510 5509 5509 5509
5623 5619 5615 5612 5612 5617 5633 5635 5628 5626 5627 5627 5623 5619 5613 5607 5602 5597 5592 5585 5579 5572 5565 5559 5553 5547 5541 5538 5534 5530 5526 5524 5521 5519 5516 5514 5512 5511 5510 5508 5507 5506 5505 5505
5623 5622 5619 5617 5617 5626 5629 5630 5630 5627 5625 5623 5619 5615 5610 5603 5597 5592 5586 5580 5574 5567 5561 5555 5549 5543 5538 5535 5531 5527 5524 5521 5519 5516 5513 5511 5509 5507 5506 5505 5504 5503 5502 5502
5629 5626 5623 5622 5626 5628 5629 5629 5628 5627 5624 5621 5617 5612 5608 5601 5594 5588 5582 5575 5569 5563 5557 5552 5546 5541 5536 5532 5529 5526 5522 5520 5517 5514 5511 5509 5507 5505 5503 5502 5502 5501 5500 5500
5631 5628 5623 5622 5626 5628 5629 5628 5626 5624 5622 5618 5614 5610 5605 5599 5591 5585 5579 5572 5567 5561 5555 5549 5545 5540 5535 5531 5528 5524 5521 5519 5515 5513 5510 5507 5505 5503 5501 5500 5499 5499 5498 5498
5630 5628 5625 5624 5628 5626 5626 5627 5626 5622 5618 5615 5611 5605 5600 5596 5590 5583 5576 5570 5565 5559 5553 5548 5543 5539 5534 5531 5527 5524 5521 5518 5515 5512 5509 5507 5505 5503 5501 5500 5499 5499 5500 5501